Fort Rucker / Ozark, AL

10:03 AM CDT on April 29, 2017 (GMT -0500)
Fort Rucker / Ozark

Weather History for KLOR - January, 2013

Change the Weather History Date:

Tuesday, January 15, 2013

  Actual Average (KOZR) Record (KOZR)
Temperature  
Mean Temperature 72 °F -  
Max Temperature 78 °F 58 °F 77 °F (2013)
Min Temperature 66 °F 36 °F 22 °F (2011)
Cooling Degree Days 7    
Growing Degree Days 22 (Base 50)    
Moisture  
Dew Point 66 °F    
Average Humidity 86    
Maximum Humidity 97    
Minimum Humidity 61    
Precipitation  
Precipitation 0.15 in - - ()
Sea Level Pressure  
Sea Level Pressure 30.01 in    
Wind  
Wind Speed 7 mph (South)    
Max Wind Speed 16 mph    
Max Gust Speed 29 mph    
Visibility 6 miles    
Events Rain    
Averages and records for this station are not official NWS values.
T = Trace of Precipitation, MM = Missing Value Source: NWS Daily Summary

Daily Weather History Graph

Daily Weather History Graph

Search for Another Location

Airport or City:

Trip Planner

Search our weather history database for the weather conditions in past years. The results will help you decide how hot, cold, wet, or windy it might be!

Date:

Astronomy

Jan. 15, 2013 Rise Set
Actual Time 6:42 AM CST 5:02 PM CST
Civil Twilight 6:16 AM CST 5:29 PM CST
Nautical Twilight 5:46 AM CST 5:58 PM CST
Astronomical Twilight 5:17 AM CST 6:28 PM CST
Moon 9:07 AM CST (1/15) 9:30 PM CST (1/15)
Length of Visible Light 11h 13m
Length of Day
10h 20m
Waxing Crescent, 19% of the Moon is Illuminated
Jan 15
Waxing Crescent
Jan 18
First Quarter
Jan 26
Full
Feb 3
Last Quarter
Feb 10
New

Hourly Weather History & Observations

Time (CST) Temp. Dew Point Humidity Pressure Visibility Wind Dir Wind Speed Gust Speed Precip Events Conditions
12:53 AM 66.0 °F 64.0 °F 93% 30.06 in 7.0 mi South 8.1 mph - N/A   Overcast
1:53 AM 66.0 °F 64.0 °F 93% 30.06 in 6.0 mi South 5.8 mph - N/A   Overcast
2:53 AM 66.9 °F 64.9 °F 93% 30.04 in 4.0 mi South 5.8 mph - N/A   Overcast
3:53 AM 66.9 °F 64.9 °F 93% 30.04 in 5.0 mi South 6.9 mph - N/A   Overcast
4:53 AM 66.9 °F 64.9 °F 93% 30.04 in 3.0 mi South 5.8 mph - N/A   Overcast
5:08 AM 66.2 °F 64.4 °F 94% 30.04 in 2.5 mi South 6.9 mph - N/A   Overcast
5:24 AM 66.2 °F 64.4 °F 94% 30.04 in 1.8 mi South 4.6 mph - N/A   Overcast
5:40 AM 66.2 °F 64.4 °F 94% 30.04 in 2.0 mi South 4.6 mph - N/A   Overcast
5:53 AM 66.0 °F 64.9 °F 96% 30.04 in 3.0 mi South 5.8 mph - N/A   Overcast
6:05 AM 66.2 °F 64.4 °F 94% 30.04 in 2.5 mi South 4.6 mph - N/A   Overcast
6:41 AM 66.2 °F 64.4 °F 94% 30.06 in 1.8 mi South 4.6 mph - 0.01 in Rain Light Rain
6:53 AM 66.9 °F 64.9 °F 93% 30.05 in 2.5 mi South 3.5 mph - 0.01 in   Overcast
7:09 AM 66.2 °F 64.4 °F 94% 30.06 in 1.5 mi Calm Calm - 0.00 in Rain Light Rain
7:53 AM 66.9 °F 66.0 °F 97% 30.06 in 2.0 mi South 4.6 mph - 0.01 in   Overcast
8:23 AM 68.0 °F 66.2 °F 94% 30.07 in 3.0 mi South 5.8 mph - N/A   Overcast
8:53 AM 69.1 °F 66.9 °F 93% 30.06 in 5.0 mi South 6.9 mph - N/A   Overcast
9:21 AM 71.6 °F 66.2 °F 83% 30.06 in 8.0 mi South 9.2 mph - N/A   Overcast
9:53 AM 72.0 °F 66.9 °F 84% 30.05 in 10.0 mi South 9.2 mph - N/A   Overcast
10:11 AM 73.4 °F 66.2 °F 78% 30.05 in 10.0 mi South 11.5 mph - N/A   Mostly Cloudy
10:53 AM 73.9 °F 66.0 °F 76% 30.02 in 10.0 mi South 11.5 mph - N/A   Overcast
11:53 AM 75.9 °F 66.0 °F 71% 29.99 in 10.0 mi SSW 12.7 mph 19.6 mph N/A   Overcast
12:53 PM 78.1 °F 66.0 °F 66% 29.97 in 10.0 mi South 11.5 mph - N/A   Mostly Cloudy
1:00 PM 78.8 °F 66.2 °F 65% 29.98 in 10.0 mi SSW 12.7 mph - N/A   Mostly Cloudy
1:28 PM 78.8 °F 64.4 °F 61% 29.98 in 10.0 mi South 12.7 mph - N/A   Overcast
1:40 PM 78.8 °F 64.4 °F 61% 29.98 in 10.0 mi SSW 13.8 mph - N/A   Overcast
1:53 PM 77.0 °F 64.9 °F 66% 29.97 in 10.0 mi South 11.5 mph - N/A   Overcast
2:27 PM 77.0 °F 66.2 °F 69% 29.97 in 10.0 mi SSW 16.1 mph - 0.00 in   Mostly Cloudy
2:53 PM 73.0 °F 66.0 °F 79% 29.98 in 10.0 mi SSW 11.5 mph 28.8 mph 0.00 in   Overcast
3:47 PM 71.6 °F 68.0 °F 88% 30.00 in 1.5 mi South 10.4 mph - 0.04 in Rain Light Rain
3:53 PM 71.1 °F 69.1 °F 93% 30.00 in 1.0 mi SSW 11.5 mph - 0.07 in Rain Heavy Rain
4:14 PM 69.8 °F 66.2 °F 88% 30.00 in 3.0 mi SSW 11.5 mph 24.2 mph 0.04 in Rain Light Rain
4:53 PM 70.0 °F 68.0 °F 93% 29.99 in 4.0 mi South 3.5 mph - 0.04 in Rain Light Rain
5:13 PM 69.8 °F 68.0 °F 94% 30.01 in 10.0 mi SSW 5.8 mph - 0.00 in   Overcast
5:53 PM 70.0 °F 66.9 °F 90% 30.00 in 8.0 mi South 5.8 mph - 0.00 in Rain Light Rain
6:53 PM 70.0 °F 66.9 °F 90% 29.99 in 7.0 mi South 4.6 mph - 0.02 in   Overcast
7:30 PM 69.8 °F 66.2 °F 88% 29.99 in 6.0 mi South 4.6 mph - N/A   Overcast
7:53 PM 70.0 °F 66.9 °F 90% 29.98 in 7.0 mi South 5.8 mph - N/A   Overcast
8:00 PM 69.8 °F 66.2 °F 88% 29.99 in 7.0 mi South 8.1 mph - N/A   Overcast
8:53 PM 69.1 °F 66.9 °F 93% 29.98 in 8.0 mi South 6.9 mph - N/A   Overcast
9:53 PM 69.1 °F 66.0 °F 90% 29.98 in 9.0 mi South 8.1 mph - N/A   Overcast
10:53 PM 69.1 °F 66.0 °F 90% 29.96 in 10.0 mi South 9.2 mph - N/A   Overcast
11:53 PM 69.1 °F 66.0 °F 90% 29.96 in 9.0 mi South 9.2 mph - N/A   Overcast